Weather History for Pierre, SD

Change the Weather History Date:

Tuesday, February 5, 2013

  Actual Average Record
Temperature  
Mean Temperature 35 °F 22 °F  
Max Temperature 40 °F 32 °F 61 °F (1991)
Min Temperature 29 °F 11 °F -25 °F (1936)
Degree Days  
Heating Degree Days 30 43  
Month to date heating degree days 189 217  
Since 1 July heating degree days 4521 4577  
Cooling Degree Days 0 0  
Month to date cooling degree days 0 0  
Year to date cooling degree days 0 0  
Moisture  
Dew Point 27 °F    
Average Humidity 76    
Maximum Humidity 92    
Minimum Humidity 59    
Precipitation  
Precipitation 0.00 in 0.02 in 0.20 in (1976)
Month to date precipitation 0.14 0.08  
Year to date precipitation 1.01 0.50  
Snow  
Snow 0.00 in 0.20 in 4.50 in (1944)
Month to date snowfall 1.4 0.8  
Since 1 July snowfall 22.7 16.7  
Snow Depth T in    
Sea Level Pressure  
Sea Level Pressure 29.94 in    
Wind  
Wind Speed 12 mph (WNW)    
Max Wind Speed 21 mph    
Max Gust Speed 25 mph    
Visibility 10 miles    
Events      
T = Trace of Precipitation, MM = Missing Value Source: NWS Daily Summary

Daily Weather History Graph

Daily Weather History Graph

Search for Another Location

Airport:

Trip Planner

Search our weather history database for the weather conditions in past years. The results will help you decide how hot, cold, wet, or windy it might be!

Date:

Astronomy

Feb. 05, 2013 Rise Set
Actual Time 7:54 AM CST 5:56 PM CST
Civil Twilight 7:23 AM CST 6:27 PM CST
Nautical Twilight 6:49 AM CST 7:01 PM CST
Astronomical Twilight 6:15 AM CST 7:35 PM CST
Moon 3:42 AM CST (2/5) 1:11 PM CST (2/5)
Length of Visible Light 11h 03m
Length of Day
10h 02m
Waning Crescent, 26% of the Moon is Illuminated
Feb 5
Waning Crescent
Feb 10
New
Feb 17
First Quarter
Feb 25
Full
Mar 4
Last Quarter

Hourly Weather History & Observations

Time (CST) Temp. Windchill Dew Point Humidity Pressure Visibility Wind Dir Wind Speed Gust Speed Precip Events Conditions
12:53 AM 39.0 °F 30.6 °F 28.0 °F 65% 29.78 in 10.0 mi West 15.0 mph - N/A   Overcast
1:53 AM 39.0 °F 30.6 °F 28.9 °F 67% 29.78 in 10.0 mi West 15.0 mph - N/A   Overcast
2:53 AM 37.0 °F 28.1 °F 28.9 °F 73% 29.81 in 10.0 mi WNW 15.0 mph - N/A   Overcast
3:53 AM 37.9 °F 28.5 °F 28.9 °F 70% 29.82 in 10.0 mi WNW 17.3 mph - N/A   Clear
4:53 AM 36.0 °F 26.3 °F 28.0 °F 73% 29.86 in 10.0 mi WNW 16.1 mph - N/A   Clear
5:53 AM 34.0 °F 23.8 °F 28.0 °F 79% 29.89 in 10.0 mi NW 16.1 mph - N/A   Clear
6:53 AM 32.0 °F 21.2 °F 26.1 °F 79% 29.92 in 10.0 mi NW 16.1 mph - N/A   Clear
7:53 AM 32.0 °F 22.1 °F 25.0 °F 75% 29.95 in 10.0 mi NW 13.8 mph - N/A   Clear
9:53 AM 35.1 °F 25.9 °F 26.1 °F 70% 30.00 in 10.0 mi WNW 13.8 mph - N/A   Clear
10:53 AM 36.0 °F 25.6 °F 26.1 °F 67% 30.03 in 10.0 mi NW 18.4 mph 25.3 mph N/A   Clear
11:53 AM 37.0 °F 28.5 °F 27.0 °F 67% 30.04 in 10.0 mi WNW 13.8 mph - N/A   Clear
12:53 PM 37.9 °F 29.6 °F 28.0 °F 68% 30.02 in 10.0 mi NW 13.8 mph - N/A   Clear
1:53 PM 37.9 °F 30.9 °F 28.0 °F 68% 30.01 in 10.0 mi WNW 10.4 mph - N/A   Overcast
2:53 PM 39.0 °F 32.3 °F 27.0 °F 62% 29.99 in 10.0 mi NW 10.4 mph - N/A   Partly Cloudy
3:53 PM 39.9 °F 35.8 °F 27.0 °F 60% 29.99 in 10.0 mi NNW 5.8 mph - N/A   Clear
4:53 PM 39.0 °F - 26.1 °F 60% 29.98 in 10.0 mi Calm Calm - N/A   Overcast
5:53 PM 36.0 °F - 26.1 °F 67% 29.98 in 10.0 mi Calm Calm - N/A   Overcast
6:53 PM 32.0 °F 27.5 °F 26.1 °F 79% 29.99 in 10.0 mi South 4.6 mph - N/A   Overcast
7:53 PM 28.9 °F 22.8 °F 24.1 °F 82% 29.98 in 10.0 mi ESE 5.8 mph - N/A   Clear
8:53 PM 30.0 °F 23.2 °F 25.0 °F 82% 29.97 in 10.0 mi ESE 6.9 mph - N/A   Clear
9:53 PM 28.9 °F 18.6 °F 25.0 °F 85% 29.95 in 10.0 mi SE 12.7 mph - N/A   Mostly Cloudy
10:53 PM 28.9 °F 21.9 °F 26.1 °F 89% 29.95 in 10.0 mi SE 6.9 mph - N/A   Mostly Cloudy
11:53 PM 30.0 °F 20.0 °F 27.0 °F 88% 29.92 in 10.0 mi SE 12.7 mph - N/A   Overcast